Location: ????? ???????
(25.7275°N, 32.5929°E)
Time: 10:42:46
(UTC+00:00)

Cosmos 1515 - Pass Details

Date: 02 March 2021
Orbit: 504 x 516 km, 82.5° (Epoch: 15 April)

Event Time Altitude Azimuth Distance (km) Brightness Sun altitude
Rises 16:41:46 0° 1° (N) 2,628 7.3 -12.0°
Reaches altitude 10° 16:43:58 10° 7° (N) 1,737 6.3 -12.5°
Maximum altitude 16:47:39 49° 83° (E) 665 3.8 -13.3°
Drops below altitude 10° 16:51:19 10° 159° (SSE) 1,721 6.1 -14.2°
Sets 16:53:29 0° 165° (SSE) 2,601 7.1 -14.6°
